This is the latest recevied weather packets stored in our database for station/object WX4ET. If no packets are shown the sender has not sent any weather packets the latest 10 day(s).
| Time | Temp. | Humidity | Pressure | Rain* | Wind** | Luminosity | Snow |
|---|---|---|---|---|---|---|---|
| 1777530200 | 11.11° C | 97% | 1007.6 hPa | 0 mm | - | 0 W/m² | - |
| 1777529898 | 11.67° C | 96% | 1007.4 hPa | 0 mm | - | 0 W/m² | - |
| 1777529594 | 11.67° C | 97% | 1007.6 hPa | 0 mm | - | 0 W/m² | - |
| 1777529292 | 11.67° C | 96% | 1007.4 hPa | 0 mm | - | 0 W/m² | - |
| 1777528988 | 11.67° C | 95% | 1007.6 hPa | 0 mm | - | 0 W/m² | - |
| 1777528683 | 11.67° C | 95% | 1007.7 hPa | 0 mm | - | 0 W/m² | - |
| 1777528381 | 12.22° C | 94% | 1008 hPa | 0 mm | - | 0 W/m² | - |
| 1777528079 | 12.22° C | 93% | 1008.2 hPa | 0 mm | - | 0 W/m² | - |
| 1777527776 | 12.78° C | 92% | 1008.1 hPa | 0 mm | - | 0 W/m² | - |
| 1777527472 | 12.78° C | 91% | 1008.2 hPa | 0 mm | - | 0 W/m² | - |
| 1777527165 | 12.78° C | 93% | 1008.2 hPa | 0 mm | - | 0 W/m² | - |
| 1777526863 | 12.22° C | 93% | 1008 hPa | 0 mm | - | 0 W/m² | - |
| 1777526557 | 12.22° C | 93% | 1008 hPa | 0 mm | - | 0 W/m² | - |
| 1777526252 | 12.22° C | 93% | 1008 hPa | 0 mm | - | 0 W/m² | - |
| 1777525948 | 12.78° C | 92% | 1008.3 hPa | 0 mm | - | 0 W/m² | - |
| 1777525646 | 12.78° C | 91% | 1008.4 hPa | 0 mm | - | 0 W/m² | - |
| 1777525343 | 12.78° C | 91% | 1008.3 hPa | 0 mm | - | 0 W/m² | - |
| 1777525038 | 13.33° C | 89% | 1008.5 hPa | 0 mm | - | 0 W/m² | - |
| 1777524736 | 13.33° C | 87% | 1008.2 hPa | 0 mm | - | 0 W/m² | - |
| 1777524434 | 13.89° C | 87% | 1008.3 hPa | 0 mm | - | 0 W/m² | - |
| 1777524130 | 13.33° C | 87% | 1008.1 hPa | 0 mm | - | 0 W/m² | - |
| 1777523827 | 13.33° C | 88% | 1008.2 hPa | 0 mm | - | 0 W/m² | - |
| 1777523523 | 13.33° C | 89% | 1008.1 hPa | 0 mm | - | 0 W/m² | - |
| 1777523219 | 13.89° C | 88% | 1008.3 hPa | 0 mm | - | 0 W/m² | - |
| 1777522915 | 13.89° C | 86% | 1008 hPa | 0 mm | - | 0 W/m² | - |
* Rain latest hour (hover to see other rain measurements)
** Current wind speed in m/s (hover to see current wind gust speed)